CZ-6A DEB, 54273

Orbit data source: Space-Track

CZ-6A DEB, 54273 is space debris in SSO originally from a launch on Fri, 11 Nov 2022 UTC launched from the Taiyaun Space Center, China (TSC). Debris objects in space refer to the collection of defunct objects orbiting the Earth. Examples of debris include non-operational satellites, rocket bodies, and fragments generated from explosions, collisions, or faulty payload assembly.

Loading next visibility...
Identifier
54273, 2022-151Q
Orbit
SSO
Country
Flag of CNCN / PRC
Related business
Manufacturer
SAST
Mission
Spacecraft
Bus & Motor
Unknown
Mass
Unknown
Launch date (UTC)
2022-11-11 (4 years ago)
Launch vehicle
Unknown
Launch site
Taiyaun Space Center, China (TSC)
Object type
Payload
Rocket body
Debris
Shape & HBR
Unknown shape, 0.1 m
Radar Cross Section
Medium (>0.1 m² and <1 m²)

Expand to show TLE details & history
Last TLE update: 11 hours ago

TLE from 11 hours ago
0 CZ-6A DEB
1 54273U 22151Q   26236.46734224  .00001869  00000-0  82949-3 0  9992
2 54273  98.7931 251.5226 0026113  71.8607 288.5412 14.24072113195252
Epoch: 2026-08-24T11:12Z
TLE epoch observation values (Epoch: 2026-08-24T11:12:58.369Z)
Latitude
-0.00003°
Longitude
110.53077°
Altitude
808.604 km
Speed
7.452 km/s
True Right ascension
16h 46m 05s
True Declination
0° 00' 00"
Sunlit
Object was in daylight at epoch
Visualization orbit readout
Latitude
Unknown
Longitude
Unknown
Altitude
Unknown
Speed
Unknown
Apparent Right ascension
Unknown
Apparent Declination
Unknown
Sunlit
N/A
Visualization observer readout
Local Sidereal Time
13:30:41
Azimuth
Unknown
Elevation
Unknown
Doppler factor
Unknown
Orbital elements
Apogee altitude
827.538 km
Perigee altitude
790.004 km
Semi-major axis
7,186.908 km
Eccentricity
0.00261
Inclination
98.7931°
RAAN
251.5226°
Arg. of periapsis
71.8607°
True anomaly
288.25721°
Mean anomaly
288.5412°
Eccentric anomaly
288.39923°
Mean motion
3.5623 °/min
Orbital period
101.06 mins
BSTAR
0.00082949
Loading maneuver chart data...
Computing Atmospheric mass density...
Loading historical data...
Loading historical data...
Loading historical data...
Loading historical data...
Loading historical data...
Loading historical data...
Loading historical data...

Documentation

Showing up to 5 results
|